,,Stat6,,Stat2,,Stat8,,Stat9,,Stat10,,Wind1,,Wind1,
time,status,PA1M_AVG,status,PR1M_SUM,status,RH1M_AVG,status,SR1M_AVG,status,TA1M_AVG,status,W1dAve1m,status,W1sAve1m,
2006-03-16, 00:00:00,VALID,918.259,VALID,0,VALID,98.0242,VALID,0,VALID,19.5636,VALID,71,VALID,0.643852,
2006-03-16, 00:01:00,VALID,918.248,VALID,0,VALID,97.8144,VALID,0.0339617,VALID,20.0511,VALID,63,VALID,0.582217,
2006-03-16, 00:02:00,VALID,918.24,VALID,0,VALID,97.3808,VALID,0,VALID,19.7553,VALID,61,VALID,0.573864,
2006-03-16, 00:03:00,VALID,918.237,VALID,0,VALID,97.4647,VALID,0,VALID,19.696,VALID,59,VALID,0.497024,
2006-03-16, 00:04:00,VALID,918.21,VALID,0,VALID,98.0115,VALID,0.0169808,VALID,19.2639,VALID,59,VALID,0.345052,
2006-03-16, 00:05:00,VALID,918.206,VALID,0,VALID,98.3637,VALID,0.0169808,VALID,19.2021,VALID,59,VALID,0.509549,
2006-03-16, 00:06:00,VALID,918.179,VALID,0,VALID,98.6155,VALID,0.0169808,VALID,19.782,VALID,59,VALID,0.577217,
2006-03-16, 00:07:00,VALID,918.15,VALID,0,VALID,98.9652,VALID,0.0169808,VALID,20.0319,VALID,85,VALID,0.762251,
2006-03-16, 00:08:00,VALID,918.105,VALID,0,VALID,99.1254,VALID,0,VALID,20.2204,VALID,101,VALID,0.857422,
2006-03-16, 00:09:00,VALID,918.057,VALID,0,VALID,99.2704,VALID,0,VALID,20.4196,VALID,105,VALID,0.943314,
2006-03-16, 00:10:00,VALID,918.01,VALID,0,VALID,99.4026,VALID,0,VALID,19.8504,VALID,96,VALID,0.966704,
2006-03-16, 00:11:00,VALID,917.957,VALID,0,VALID,99.3962,VALID,0,VALID,19.4664,VALID,94,VALID,0.65918,
2006-03-16, 00:12:00,VALID,917.92,VALID,0,VALID,99.5158,VALID,0,VALID,20.2983,VALID,94,VALID,0.639258,
2006-03-16, 00:13:00,VALID,917.872,VALID,0,VALID,99.4992,VALID,0.0169808,VALID,19.8952,VALID,94,VALID,0.537642,
2006-03-16, 00:14:00,VALID,917.858,VALID,0,VALID,99.4509,VALID,-0.0169808,VALID,19.6655,VALID,94,VALID,0.383384,
2006-03-16, 00:15:00,VALID,917.842,VALID,0,VALID,99.3683,VALID,0,VALID,20.0764,VALID,95,VALID,0.143169,
2006-03-16, 00:16:00,VALID,917.834,VALID,0,VALID,99.1915,VALID,0,VALID,19.2311,VALID,95,VALID,0.0949653,
2006-03-16, 00:17:00,VALID,917.844,VALID,0,VALID,99.1394,VALID,0,VALID,19.3948,VALID,95,VALID,0.0130814,
2006-03-16, 00:18:00,VALID,917.856,VALID,0,VALID,99.1076,VALID,-0.0169808,VALID,19.1192,VALID,95,VALID,0,
2006-03-16, 00:19:00,VALID,917.864,VALID,0,VALID,99.0822,VALID,-0.0169808,VALID,19.5426,VALID,95,VALID,0,
2006-03-16, 00:20:00,VALID,917.869,VALID,0,VALID,98.9792,VALID,0.0169808,VALID,19.9405,VALID,95,VALID,0,
2006-03-16, 00:21:00,VALID,917.873,VALID,0,VALID,98.8215,VALID,0,VALID,20.141,VALID,95,VALID,0,
2006-03-16, 00:22:00,VALID,917.881,VALID,0,VALID,98.6511,VALID,0,VALID,19.0915,VALID,95,VALID,0,
2006-03-16, 00:23:00,VALID,917.875,VALID,0,VALID,98.5188,VALID,0,VALID,20.1829,VALID,95,VALID,0,
2006-03-16, 00:24:00,VALID,917.866,VALID,0,VALID,98.384,VALID,-0.0169808,VALID,19.5704,VALID,95,VALID,0,
2006-03-16, 00:25:00,VALID,917.858,VALID,0,VALID,98.3637,VALID,-0.0169808,VALID,17.5657,VALID,95,VALID,0,
2006-03-16, 00:26:00,VALID,917.856,VALID,0,VALID,98.22,VALID,0,VALID,21.1085,VALID,95,VALID,0,
2006-03-16, 00:27:00,VALID,917.851,VALID,0,VALID,97.766,VALID,0,VALID,18.9187,VALID,95,VALID,0,
2006-03-16, 00:28:00,VALID,917.856,VALID,0,VALID,97.7508,VALID,0,VALID,20.2029,VALID,95,VALID,0,
2006-03-16, 00:29:00,VALID,917.875,VALID,0,VALID,97.6719,VALID,-0.0169808,VALID,20.1593,VALID,95,VALID,0.043968,
2006-03-16, 00:30:00,VALID,917.891,VALID,0,VALID,97.6541,VALID,0,VALID,20.2483,VALID,95,VALID,0.223722,
2006-03-16, 00:31:00,VALID,917.906,VALID,0,VALID,97.5855,VALID,-0.0169808,VALID,19.4295,VALID,95,VALID,0.00872093,
2006-03-16, 00:32:00,VALID,917.904,VALID,0,VALID,97.466,VALID,0,VALID,19.232,VALID,95,VALID,0,
2006-03-16, 00:33:00,VALID,917.901,VALID,0,VALID,97.396,VALID,0,VALID,20.0009,VALID,95,VALID,0.119978,
2006-03-16, 00:34:00,VALID,917.885,VALID,0,VALID,97.3121,VALID,0,VALID,19.9914,VALID,95,VALID,0.341933,
2006-03-16, 00:35:00,VALID,917.87,VALID,0,VALID,97.1569,VALID,0,VALID,20.3805,VALID,95,VALID,0.434028,
2006-03-16, 00:36:00,VALID,917.839,VALID,0,VALID,97.1735,VALID,0.0169808,VALID,19.7256,VALID,96,VALID,0.374238,
2006-03-16, 00:37:00,VALID,917.82,VALID,0,VALID,97.0984,VALID,0,VALID,20.8228,VALID,113,VALID,0.390104,
2006-03-16, 00:38:00,VALID,917.792,VALID,0,VALID,97.0641,VALID,0.0339617,VALID,19.6633,VALID,115,VALID,0.30202,
2006-03-16, 00:39:00,VALID,917.773,VALID,0,VALID,97.0705,VALID,0.118866,VALID,20.3019,VALID,126,VALID,0.257267,
2006-03-16, 00:40:00,VALID,917.763,VALID,0,VALID,97.101,VALID,0.118866,VALID,19.8039,VALID,126,VALID,0.0234375,
2006-03-16, 00:41:00,VALID,917.747,VALID,0,VALID,96.9268,VALID,0.0849042,VALID,19.7623,VALID,126,VALID,0,
2006-03-16, 00:42:00,VALID,917.751,VALID,0,VALID,96.544,VALID,0.101885,VALID,19.8516,VALID,126,VALID,0,
2006-03-16, 00:43:00,VALID,917.742,VALID,0,VALID,96.441,VALID,0.0679233,VALID,20.3086,VALID,126,VALID,0.106468,
2006-03-16, 00:44:00,VALID,917.747,VALID,0,VALID,96.6458,VALID,0,VALID,20.8063,VALID,126,VALID,0.224185,
2006-03-16, 00:45:00,VALID,917.737,VALID,0,VALID,96.9497,VALID,0,VALID,19.9731,VALID,126,VALID,0.0897529,
2006-03-16, 00:46:00,VALID,917.726,VALID,0,VALID,97.4214,VALID,-0.0169808,VALID,19.654,VALID,126,VALID,0.380087,
2006-03-16, 00:47:00,VALID,917.718,VALID,0,VALID,97.7203,VALID,-0.0169808,VALID,20.0772,VALID,89,VALID,0.585938,
2006-03-16, 00:48:00,VALID,917.72,VALID,0,VALID,97.7037,VALID,0,VALID,20.2415,VALID,63,VALID,0.820668,
2006-03-16, 00:49:00,VALID,917.725,VALID,0,VALID,97.5956,VALID,0.0169808,VALID,19.661,VALID,53,VALID,1.16543,
2006-03-16, 00:50:00,VALID,917.725,VALID,0,VALID,97.6592,VALID,-0.0169808,VALID,19.5484,VALID,49,VALID,0.944754,
2006-03-16, 00:51:00,VALID,917.731,VALID,0,VALID,97.85,VALID,0,VALID,19.6763,VALID,49,VALID,0.84341,
2006-03-16, 00:52:00,VALID,917.735,VALID,0,VALID,97.953,VALID,0,VALID,19.8101,VALID,49,VALID,0.769727,
2006-03-16, 00:53:00,VALID,917.751,VALID,0,VALID,98.2086,VALID,0,VALID,20.2521,VALID,49,VALID,0.521076,
2006-03-16, 00:54:00,VALID,917.742,VALID,0,VALID,98.365,VALID,-0.0339617,VALID,19.6424,VALID,49,VALID,0.451758,
2006-03-16, 00:55:00,VALID,917.733,VALID,0,VALID,98.4196,VALID,-0.0169808,VALID,20.2151,VALID,21,VALID,0.609012,
2006-03-16, 00:56:00,VALID,917.715,VALID,0,VALID,98.4756,VALID,-0.0169808,VALID,19.819,VALID,346,VALID,0.684048,
2006-03-16, 00:57:00,VALID,917.682,VALID,0,VALID,98.4629,VALID,0,VALID,20.0638,VALID,349,VALID,0.553385,
2006-03-16, 00:58:00,VALID,917.667,VALID,0,VALID,98.4553,VALID,0,VALID,19.8028,VALID,360,VALID,0.454359,
2006-03-16, 00:59:00,VALID,917.631,VALID,0,VALID,98.4832,VALID,-0.0339617,VALID,19.5246,VALID,360,VALID,0.553961,
2006-03-16, 01:00:00,VALID,917.613,VALID,0,VALID,98.4184,VALID,0,VALID,19.9463,VALID,360,VALID,0.579055,
2006-03-16, 01:01:00,VALID,917.594,VALID,0,VALID,98.4184,VALID,-0.0169808,VALID,19.6666,VALID,360,VALID,0.270952,
2006-03-16, 01:02:00,VALID,917.588,VALID,0,VALID,98.4972,VALID,-0.0169808,VALID,20.2801,VALID,360,VALID,0.0710565,
2006-03-16, 01:03:00,VALID,917.594,VALID,0,VALID,98.4756,VALID,0,VALID,19.9934,VALID,360,VALID,0.0212054,
2006-03-16, 01:04:00,VALID,917.601,VALID,0,VALID,98.4921,VALID,0,VALID,19.5917,VALID,360,VALID,0.216016,
2006-03-16, 01:05:00,VALID,917.613,VALID,0,VALID,98.6053,VALID,0,VALID,19.8381,VALID,360,VALID,0.0106707,
2006-03-16, 01:06:00,VALID,917.612,VALID,0,VALID,98.5913,VALID,0,VALID,20.1298,VALID,360,VALID,0,
2006-03-16, 01:07:00,VALID,917.625,VALID,0,VALID,98.3917,VALID,0.0169808,VALID,19.5794,VALID,360,VALID,0,
2006-03-16, 01:08:00,VALID,917.617,VALID,0,VALID,98.281,VALID,0,VALID,20.0562,VALID,360,VALID,0,
2006-03-16, 01:09:00,VALID,917.611,VALID,0,VALID,98.1793,VALID,0,VALID,19.5655,VALID,360,VALID,0.0861192,
2006-03-16, 01:10:00,VALID,917.607,VALID,0,VALID,98,VALID,0.0169808,VALID,19.8984,VALID,360,VALID,0.0107639,
2006-03-16, 01:11:00,VALID,917.611,VALID,0,VALID,97.9008,VALID,0,VALID,20.0244,VALID,360,VALID,0,
2006-03-16, 01:12:00,VALID,917.603,VALID,0,VALID,97.7101,VALID,0,VALID,20.1333,VALID,360,VALID,0.0814236,
2006-03-16, 01:13:00,VALID,917.602,VALID,0,VALID,97.5181,VALID,0.0509425,VALID,19.9448,VALID,360,VALID,0.359012,
2006-03-16, 01:14:00,VALID,917.586,VALID,0,VALID,97.3223,VALID,0.0169808,VALID,19.6403,VALID,360,VALID,0.363839,
2006-03-16, 01:15:00,VALID,917.578,VALID,0,VALID,97.3629,VALID,0.0169808,VALID,19.9451,VALID,360,VALID,0.234908,
2006-03-16, 01:16:00,VALID,917.541,VALID,0,VALID,97.3553,VALID,-0.0169808,VALID,20.0672,VALID,360,VALID,0.107887,
2006-03-16, 01:17:00,VALID,917.511,VALID,0,VALID,97.3947,VALID,-0.0339617,VALID,19.3989,VALID,360,VALID,0,
2006-03-16, 01:18:00,VALID,917.483,VALID,0,VALID,97.3896,VALID,-0.0849042,VALID,20.2627,VALID,360,VALID,0,
2006-03-16, 01:19:00,VALID,917.465,VALID,0,VALID,97.4456,VALID,0.0169808,VALID,20.4313,VALID,360,VALID,0.00621449,
2006-03-16, 01:20:00,VALID,917.449,VALID,0,VALID,97.6134,VALID,0,VALID,19.7986,VALID,360,VALID,0.0552455,
2006-03-16, 01:21:00,VALID,917.43,VALID,0,VALID,97.7266,VALID,0.0169808,VALID,19.4814,VALID,360,VALID,0.192587,
2006-03-16, 01:22:00,VALID,917.423,VALID,0,VALID,97.7762,VALID,0.0169808,VALID,19.8736,VALID,360,VALID,0.271443,
2006-03-16, 01:23:00,VALID,917.416,VALID,0,VALID,97.705,VALID,0.0169808,VALID,19.9407,VALID,360,VALID,0.276736,
2006-03-16, 01:24:00,VALID,917.408,VALID,0,VALID,97.8729,VALID,0.0169808,VALID,19.6946,VALID,360,VALID,0.126243,
2006-03-16, 01:25:00,VALID,917.398,VALID,0,VALID,98.1323,VALID,0,VALID,19.4426,VALID,360,VALID,0,
2006-03-16, 01:26:00,VALID,917.388,VALID,0,VALID,98.309,VALID,0.0169808,VALID,19.8651,VALID,360,VALID,0,
2006-03-16, 01:27:00,VALID,917.367,VALID,0,VALID,98.5125,VALID,0,VALID,19.5566,VALID,360,VALID,0,
2006-03-16, 01:28:00,VALID,917.368,VALID,0,VALID,98.7337,VALID,0.0509425,VALID,19.9457,VALID,360,VALID,0,
2006-03-16, 01:29:00,VALID,917.347,VALID,0,VALID,98.955,VALID,0.0169808,VALID,19.7824,VALID,360,VALID,0,
2006-03-16, 01:30:00,VALID,917.323,VALID,0,VALID,99.1139,VALID,0,VALID,19.7332,VALID,360,VALID,0,
2006-03-16, 01:31:00,VALID,917.306,VALID,0,VALID,99.1623,VALID,0.0169808,VALID,19.5018,VALID,360,VALID,0,
2006-03-16, 01:32:00,VALID,917.282,VALID,0,VALID,98.9563,VALID,0,VALID,19.2931,VALID,360,VALID,0,
2006-03-16, 01:33:00,VALID,917.254,VALID,0,VALID,98.5748,VALID,-0.0679233,VALID,19.0947,VALID,360,VALID,0,
2006-03-16, 01:34:00,VALID,917.241,VALID,0,VALID,98.5405,VALID,0.0169808,VALID,19.9186,VALID,25,VALID,0.122904,
2006-03-16, 01:35:00,VALID,917.217,VALID,0,VALID,99.175,VALID,-0.0169808,VALID,20.3751,VALID,65,VALID,0.493459,
2006-03-16, 01:36:00,VALID,917.197,VALID,0,VALID,99.6302,VALID,-0.0169808,VALID,19.533,VALID,65,VALID,0.394627,
2006-03-16, 01:37:00,VALID,917.186,VALID,0,VALID,99.7675,VALID,0,VALID,19.4604,VALID,67,VALID,0.564029,
2006-03-16, 01:38:00,VALID,917.161,VALID,0,VALID,99.765,VALID,0.0509425,VALID,20.162,VALID,70,VALID,0.758594,
2006-03-16, 01:39:00,VALID,917.164,VALID,0,VALID,99.8655,VALID,0.0339617,VALID,19.7135,VALID,70,VALID,0.842949,
2006-03-16, 01:40:00,VALID,917.161,VALID,0,VALID,99.9519,VALID,0.0509425,VALID,19.1734,VALID,76,VALID,0.839844,
2006-03-16, 01:41:00,VALID,917.138,VALID,0,VALID,100,VALID,0.0169808,VALID,19.7666,VALID,82,VALID,0.966442,
2006-03-16, 01:42:00,VALID,917.131,VALID,0,VALID,100,VALID,0,VALID,19.7211,VALID,88,VALID,1.06321,
2006-03-16, 01:43:00,VALID,917.126,VALID,0,VALID,100,VALID,0.0169808,VALID,19.6151,VALID,89,VALID,1.04215,
2006-03-16, 01:44:00,VALID,917.119,VALID,0,VALID,100,VALID,0.0679233,VALID,20.1198,VALID,77,VALID,0.955729,
2006-03-16, 01:45:00,VALID,917.121,VALID,0,VALID,100,VALID,0.0169808,VALID,18.837,VALID,71,VALID,1.18623,
2006-03-16, 01:46:00,VALID,917.117,VALID,0,VALID,100,VALID,0.0339617,VALID,19.5127,VALID,81,VALID,1.03198,
2006-03-16, 01:47:00,VALID,917.105,VALID,0,VALID,100,VALID,0.0509425,VALID,20.1186,VALID,98,VALID,1.07213,
2006-03-16, 01:48:00,VALID,917.11,VALID,0,VALID,100,VALID,0,VALID,19.8765,VALID,97,VALID,0.970385,
2006-03-16, 01:49:00,VALID,917.103,VALID,0,VALID,100,VALID,0.0339617,VALID,19.1647,VALID,96,VALID,1.02497,
2006-03-16, 01:50:00,VALID,917.091,VALID,0,VALID,100,VALID,0.0169808,VALID,19.3555,VALID,96,VALID,0.810683,
2006-03-16, 01:51:00,VALID,917.068,VALID,0,VALID,100,VALID,0.0169808,VALID,19.1754,VALID,82,VALID,0.77907,
2006-03-16, 01:52:00,VALID,917.035,VALID,0,VALID,100,VALID,0.0339617,VALID,19.5582,VALID,63,VALID,0.653993,
2006-03-16, 01:53:00,VALID,917.005,VALID,0,VALID,100,VALID,0,VALID,19.0708,VALID,68,VALID,0.748944,
2006-03-16, 01:54:00,VALID,916.949,VALID,0,VALID,100,VALID,0.0169808,VALID,19.3122,VALID,82,VALID,0.918605,
2006-03-16, 01:55:00,VALID,916.902,VALID,0,VALID,100,VALID,0,VALID,19.9006,VALID,93,VALID,0.965345,
2006-03-16, 01:56:00,VALID,916.841,VALID,0,VALID,100,VALID,0.0169808,VALID,19.4855,VALID,93,VALID,1.11683,
2006-03-16, 01:57:00,VALID,916.801,VALID,0,VALID,100,VALID,0,VALID,19.5267,VALID,91,VALID,1.17135,
2006-03-16, 01:58:00,VALID,916.756,VALID,0,VALID,100,VALID,0,VALID,19.6381,VALID,91,VALID,1.2252,
2006-03-16, 01:59:00,VALID,916.714,VALID,0,VALID,100,VALID,0.0339617,VALID,19.5662,VALID,91,VALID,1.32292,
2006-03-16, 02:00:00,VALID,916.66,VALID,0,VALID,100,VALID,0.0169808,VALID,20.3674,VALID,84,VALID,1.16502,
2006-03-16, 02:01:00,VALID,916.629,VALID,0,VALID,100,VALID,0.0169808,VALID,19.252,VALID,78,VALID,0.99657,
2006-03-16, 02:02:00,VALID,916.6,VALID,0,VALID,100,VALID,0.0169808,VALID,19.8131,VALID,74,VALID,0.922783,
2006-03-16, 02:03:00,VALID,916.577,VALID,0,VALID,100,VALID,0,VALID,19.9003,VALID,76,VALID,0.982515,
2006-03-16, 02:04:00,VALID,916.554,VALID,0,VALID,100,VALID,0,VALID,19.2452,VALID,82,VALID,1.0867,
2006-03-16, 02:05:00,VALID,916.544,VALID,0,VALID,100,VALID,0,VALID,19.253,VALID,96,VALID,1.46992,
2006-03-16, 02:06:00,VALID,916.534,VALID,0,VALID,100,VALID,0,VALID,20.2067,VALID,93,VALID,1.51128,
2006-03-16, 02:07:00,VALID,916.527,VALID,0,VALID,100,VALID,-0.0169808,VALID,19.3641,VALID,85,VALID,1.0907,
2006-03-16, 02:08:00,VALID,916.514,VALID,0,VALID,100,VALID,0,VALID,20.07,VALID,90,VALID,1.09629,
2006-03-16, 02:09:00,VALID,916.502,VALID,0,VALID,100,VALID,0.0169808,VALID,19.1455,VALID,93,VALID,1.12054,
2006-03-16, 02:10:00,VALID,916.488,VALID,0,VALID,100,VALID,0,VALID,19.6532,VALID,94,VALID,1.03181,
2006-03-16, 02:11:00,VALID,916.473,VALID,0,VALID,100,VALID,0.0169808,VALID,19.5677,VALID,100,VALID,1.01864,
2006-03-16, 02:12:00,VALID,916.452,VALID,0,VALID,100,VALID,0,VALID,18.9016,VALID,97,VALID,1.01135,
2006-03-16, 02:13:00,VALID,916.436,VALID,0,VALID,100,VALID,0,VALID,19.2577,VALID,113,VALID,0.966264,
2006-03-16, 02:14:00,VALID,916.412,VALID,0,VALID,100,VALID,0,VALID,18.9111,VALID,116,VALID,1.02539,
2006-03-16, 02:15:00,VALID,916.401,VALID,0,VALID,100,VALID,0,VALID,19.6384,VALID,122,VALID,0.852896,
2006-03-16, 02:16:00,VALID,916.41,VALID,0,VALID,100,VALID,0,VALID,19.263,VALID,123,VALID,1.24538,
2006-03-16, 02:17:00,VALID,916.422,VALID,0,VALID,100,VALID,0.0169808,VALID,19.6242,VALID,123,VALID,1.30736,
2006-03-16, 02:18:00,VALID,916.415,VALID,0,VALID,100,VALID,0.0169808,VALID,19.4419,VALID,123,VALID,1.2742,
2006-03-16, 02:19:00,VALID,916.403,VALID,0,VALID,100,VALID,0,VALID,20.1105,VALID,125,VALID,1.20443,
2006-03-16, 02:20:00,VALID,916.385,VALID,0,VALID,100,VALID,0,VALID,18.9013,VALID,118,VALID,1.0242,
2006-03-16, 02:21:00,VALID,916.361,VALID,0,VALID,100,VALID,0.0339617,VALID,20.1459,VALID,122,VALID,0.773801,
2006-03-16, 02:22:00,VALID,916.322,VALID,0,VALID,100,VALID,0.0169808,VALID,19.7219,VALID,134,VALID,0.648838,
2006-03-16, 02:23:00,VALID,916.282,VALID,0,VALID,100,VALID,0,VALID,19.4841,VALID,134,VALID,0.684048,
2006-03-16, 02:24:00,VALID,916.251,VALID,0,VALID,99.988,VALID,-0.0169808,VALID,19.7023,VALID,135,VALID,0.691761,
2006-03-16, 02:25:00,VALID,916.237,VALID,0,VALID,99.8655,VALID,0.0169808,VALID,19.507,VALID,139,VALID,0.742746,
2006-03-16, 02:26:00,VALID,916.219,VALID,0,VALID,99.7307,VALID,-0.0169808,VALID,18.9713,VALID,134,VALID,0.809152,
2006-03-16, 02:27:00,VALID,916.207,VALID,0,VALID,99.7002,VALID,0,VALID,19.184,VALID,132,VALID,0.839753,
2006-03-16, 02:28:00,VALID,916.206,VALID,0,VALID,99.6518,VALID,0,VALID,19.498,VALID,132,VALID,1.04812,
2006-03-16, 02:29:00,VALID,916.19,VALID,0,VALID,99.4751,VALID,0.0169808,VALID,18.8974,VALID,147,VALID,0.769444,
2006-03-16, 02:30:00,VALID,916.182,VALID,0,VALID,99.381,VALID,0,VALID,19.982,VALID,150,VALID,0.747452,
2006-03-16, 02:31:00,VALID,916.151,VALID,0,VALID,99.3759,VALID,0,VALID,19.8496,VALID,135,VALID,0.45258,
2006-03-16, 02:32:00,VALID,916.122,VALID,0,VALID,99.4649,VALID,0,VALID,18.8313,VALID,145,VALID,0.701637,
2006-03-16, 02:33:00,VALID,916.099,VALID,0,VALID,99.5336,VALID,0,VALID,20.0669,VALID,142,VALID,0.744004,
2006-03-16, 02:34:00,VALID,916.067,VALID,0,VALID,99.6175,VALID,0,VALID,19.3067,VALID,135,VALID,0.948401,
2006-03-16, 02:35:00,VALID,916.039,VALID,0,VALID,99.7294,VALID,0,VALID,19.794,VALID,143,VALID,0.608665,
2006-03-16, 02:36:00,VALID,916.014,VALID,0,VALID,99.7345,VALID,0,VALID,18.9081,VALID,129,VALID,0.539844,
2006-03-16, 02:37:00,VALID,916.001,VALID,0,VALID,99.8197,VALID,-0.0339617,VALID,19.5337,VALID,149,VALID,0.863376,
2006-03-16, 02:38:00,VALID,915.98,VALID,0,VALID,99.9827,VALID,-0.0169808,VALID,20.2942,VALID,155,VALID,0.857329,
2006-03-16, 02:39:00,VALID,915.973,VALID,0,VALID,100,VALID,0,VALID,19.7052,VALID,154,VALID,0.979611,
2006-03-16, 02:40:00,VALID,915.975,VALID,0,VALID,100,VALID,0.0169808,VALID,19.9743,VALID,154,VALID,0.739211,
2006-03-16, 02:41:00,VALID,915.981,VALID,0,VALID,100,VALID,0.0509425,VALID,19.4629,VALID,155,VALID,0.595424,
2006-03-16, 02:42:00,VALID,915.996,VALID,0,VALID,100,VALID,0,VALID,20.1255,VALID,154,VALID,0.647222,
2006-03-16, 02:43:00,VALID,916.016,VALID,0,VALID,100,VALID,0.0169808,VALID,19.4885,VALID,151,VALID,0.768945,
2006-03-16, 02:44:00,VALID,916.036,VALID,0,VALID,100,VALID,-0.0509425,VALID,19.6927,VALID,154,VALID,0.717262,
2006-03-16, 02:45:00,VALID,916.044,VALID,0,VALID,100,VALID,0,VALID,19.3111,VALID,148,VALID,0.733613,
2006-03-16, 02:46:00,VALID,916.049,VALID,0,VALID,100,VALID,-0.0849042,VALID,19.625,VALID,150,VALID,0.437674,
2006-03-16, 02:47:00,VALID,916.053,VALID,0,VALID,100,VALID,0.0509425,VALID,19.5018,VALID,145,VALID,0.392078,
2006-03-16, 02:48:00,VALID,916.063,VALID,0,VALID,100,VALID,0,VALID,19.9602,VALID,144,VALID,0.65843,
2006-03-16, 02:49:00,VALID,916.051,VALID,0,VALID,100,VALID,0.0849042,VALID,18.8228,VALID,132,VALID,0.670785,
2006-03-16, 02:50:00,VALID,916.037,VALID,0,VALID,100,VALID,0.0339617,VALID,19.7413,VALID,137,VALID,0.669034,
2006-03-16, 02:51:00,VALID,916.023,VALID,0,VALID,100,VALID,0.0339617,VALID,19.7705,VALID,143,VALID,0.879542,
2006-03-16, 02:52:00,VALID,916.018,VALID,0,VALID,100,VALID,-0.0169808,VALID,19.0391,VALID,131,VALID,0.596977,
2006-03-16, 02:53:00,VALID,916.009,VALID,0,VALID,100,VALID,-0.0339617,VALID,19.8258,VALID,142,VALID,0.657703,
2006-03-16, 02:54:00,VALID,915.994,VALID,0,VALID,100,VALID,0.0339617,VALID,19.8068,VALID,145,VALID,0.77793,
2006-03-16, 02:55:00,VALID,915.986,VALID,0,VALID,100,VALID,-0.0339617,VALID,19.4134,VALID,148,VALID,0.924352,
2006-03-16, 02:56:00,VALID,915.976,VALID,0,VALID,100,VALID,-0.0679233,VALID,19.4055,VALID,151,VALID,0.701367,
2006-03-16, 02:57:00,VALID,915.965,VALID,0,VALID,99.9929,VALID,-0.101885,VALID,19.9869,VALID,149,VALID,1.07924,
2006-03-16, 02:58:00,VALID,915.957,VALID,0,VALID,99.9977,VALID,-0.0679233,VALID,19.5124,VALID,149,VALID,0.948242,
2006-03-16, 02:59:00,VALID,915.938,VALID,0,VALID,100,VALID,-0.0679233,VALID,19.1626,VALID,152,VALID,1.03488,
2006-03-16, 03:00:00,VALID,915.93,VALID,0,VALID,100,VALID,0.0169808,VALID,19.449,VALID,150,VALID,1.22747,
2006-03-16, 03:01:00,VALID,915.929,VALID,0,VALID,100,VALID,0,VALID,19.8298,VALID,147,VALID,0.934338,
2006-03-16, 03:02:00,VALID,915.918,VALID,0,VALID,100,VALID,-0.0169808,VALID,18.8984,VALID,151,VALID,1.19215,
2006-03-16, 03:03:00,VALID,915.908,VALID,0,VALID,100,VALID,-0.0169808,VALID,19.4959,VALID,155,VALID,0.901367,
2006-03-16, 03:04:00,VALID,915.894,VALID,0,VALID,100,VALID,-0.0339617,VALID,19.3117,VALID,154,VALID,0.973474,
2006-03-16, 03:05:00,VALID,915.874,VALID,0,VALID,100,VALID,0.0169808,VALID,19.5293,VALID,154,VALID,1.03441,
2006-03-16, 03:06:00,VALID,915.846,VALID,0,VALID,100,VALID,0,VALID,19.5431,VALID,166,VALID,0.832317,
2006-03-16, 03:07:00,VALID,915.83,VALID,0,VALID,100,VALID,0.0169808,VALID,19.0106,VALID,177,VALID,1.00418,
2006-03-16, 03:08:00,VALID,915.808,VALID,0,VALID,100,VALID,0.0339617,VALID,19.2585,VALID,158,VALID,0.822731,
2006-03-16, 03:09:00,VALID,915.781,VALID,0,VALID,100,VALID,0,VALID,19.6479,VALID,167,VALID,1.16443,
2006-03-16, 03:10:00,VALID,915.76,VALID,0,VALID,99.9964,VALID,0,VALID,19.6874,VALID,152,VALID,0.960574,
2006-03-16, 03:11:00,VALID,915.725,VALID,0,VALID,99.9176,VALID,0,VALID,19.6423,VALID,159,VALID,0.685547,
2006-03-16, 03:12:00,VALID,915.703,VALID,0,VALID,99.7866,VALID,0,VALID,19.3915,VALID,152,VALID,0.85774,
2006-03-16, 03:13:00,VALID,915.675,VALID,0,VALID,99.6289,VALID,0.0169808,VALID,19.545,VALID,124,VALID,0.659255,
2006-03-16, 03:14:00,VALID,915.656,VALID,0,VALID,99.4357,VALID,0.0169808,VALID,19.135,VALID,113,VALID,0.863186,
2006-03-16, 03:15:00,VALID,915.631,VALID,0,VALID,99.2602,VALID,0.0339617,VALID,20.2291,VALID,120,VALID,1.19371,
2006-03-16, 03:16:00,VALID,915.599,VALID,0,VALID,99.1216,VALID,0,VALID,19.3687,VALID,124,VALID,0.943892,
2006-03-16, 03:17:00,VALID,915.587,VALID,0,VALID,99.0198,VALID,0,VALID,19.1427,VALID,122,VALID,1.0888,
2006-03-16, 03:18:00,VALID,915.557,VALID,0,VALID,98.838,VALID,0,VALID,19.0443,VALID,123,VALID,1.19168,
2006-03-16, 03:19:00,VALID,915.553,VALID,0,VALID,98.5888,VALID,0.0169808,VALID,19.2884,VALID,132,VALID,1.25927,
2006-03-16, 03:20:00,VALID,915.556,VALID,0,VALID,98.3306,VALID,0,VALID,19.4186,VALID,135,VALID,1.14063,
2006-03-16, 03:21:00,VALID,915.534,VALID,0,VALID,98.1285,VALID,0,VALID,19.5496,VALID,146,VALID,0.885099,
2006-03-16, 03:22:00,VALID,915.522,VALID,0,VALID,98.0204,VALID,0.0849042,VALID,20.4438,VALID,145,VALID,0.420922,
2006-03-16, 03:23:00,VALID,915.513,VALID,0,VALID,97.8245,VALID,0.0509425,VALID,19.2835,VALID,113,VALID,0.561928,
2006-03-16, 03:24:00,VALID,915.502,VALID,0,VALID,97.7648,VALID,-0.0679233,VALID,19.7435,VALID,113,VALID,0.318945,
2006-03-16, 03:25:00,VALID,915.48,VALID,0,VALID,97.7966,VALID,-0.0169808,VALID,19.37,VALID,114,VALID,0.23056,
2006-03-16, 03:26:00,VALID,915.484,VALID,0,VALID,97.8449,VALID,-0.0169808,VALID,19.3501,VALID,114,VALID,0.0225291,
2006-03-16, 03:27:00,VALID,915.481,VALID,0,VALID,97.8563,VALID,-0.0169808,VALID,19.5059,VALID,114,VALID,0.059048,
2006-03-16, 03:28:00,VALID,915.483,VALID,0,VALID,97.8627,VALID,-0.0169808,VALID,20.0628,VALID,113,VALID,0.0407774,
2006-03-16, 03:29:00,VALID,915.48,VALID,0,VALID,97.897,VALID,0,VALID,19.2496,VALID,113,VALID,0.133358,
2006-03-16, 03:30:00,VALID,915.474,VALID,0,VALID,97.8729,VALID,-0.0339617,VALID,18.9914,VALID,113,VALID,0,
2006-03-16, 03:31:00,VALID,915.464,VALID,0,VALID,97.9046,VALID,-0.0169808,VALID,19.2865,VALID,114,VALID,0,
2006-03-16, 03:32:00,VALID,915.485,VALID,0,VALID,97.9008,VALID,0,VALID,19.5024,VALID,114,VALID,0,
2006-03-16, 03:33:00,VALID,915.495,VALID,0,VALID,97.9072,VALID,0,VALID,19.5073,VALID,114,VALID,0.0766369,
2006-03-16, 03:34:00,VALID,915.491,VALID,0,VALID,98.0445,VALID,0,VALID,19.319,VALID,114,VALID,0.180618,
2006-03-16, 03:35:00,VALID,915.506,VALID,0,VALID,98.1615,VALID,0,VALID,18.7711,VALID,114,VALID,0.0753348,
2006-03-16, 03:36:00,VALID,915.525,VALID,0,VALID,98.2734,VALID,-0.0339617,VALID,19.1405,VALID,168,VALID,0.309524,
2006-03-16, 03:37:00,VALID,915.549,VALID,0,VALID,98.5328,VALID,0,VALID,19.7703,VALID,184,VALID,0.28457,
2006-03-16, 03:38:00,VALID,915.563,VALID,0,VALID,98.7643,VALID,0,VALID,20.0223,VALID,184,VALID,0.189135,
2006-03-16, 03:39:00,VALID,915.596,VALID,0,VALID,98.9194,VALID,0.0169808,VALID,19.5601,VALID,184,VALID,0.0684956,
2006-03-16, 03:40:00,VALID,915.619,VALID,0,VALID,99.0567,VALID,0,VALID,18.8791,VALID,184,VALID,0,
2006-03-16, 03:41:00,VALID,915.619,VALID,0,VALID,99.1737,VALID,0.0169808,VALID,19.3243,VALID,184,VALID,0,
2006-03-16, 03:42:00,VALID,915.62,VALID,0,VALID,99.0504,VALID,0,VALID,19.0501,VALID,184,VALID,0.0922965,